Flag for Colombia Weather past 2 weeks in Bucaramanga, Colombia

Now
57 °F

Partly cloudy.


Feels Like: 57 °F
Forecast: 68 / 85 °F
Wind: No wind

Location: Rionegro / J. M. Cordova

Current Time: Jul 7, 2015 at 4:18:30 AM

Latest Report: Jul 7, 2015 at 4:00 AM


Visibility: 2 mi

Pressure: 30.27 "Hg (27.01 "Hg at 956m altitude)

Humidity: 94%

Dew point: 55 °F

Location of BucaramangaLocation

Historic Weather in Bucaramanga — Graph

°F

Bucaramanga temperature yesterday

Maximum temperature yesterday: 73 °F (at 1:00 PM)
Minimum temperature yesterday: 55 °F (at 6:00 AM)
Average temperature yesterday: 64 °F

Past Weeks' High & Low Weather Summary

 TemperatureHumidityPressure
High86 °F (Jul 4, 3:00 PM)100% (Jun 29, 7:00 AM)30.36 "Hg (Jun 29, 7:00 AM)
Low50 °F (Jun 25, 3:00 AM)31% (Jun 30, 2:00 PM)29.91 "Hg (Jun 23, 3:00 PM)
Average64 °F71%30.28 "Hg
* Reported Jun 22 3:00 AM — Jul 7 3:00 AM, Bucaramanga, Weather by CustomWeather, © 2015

Note: Actual official high and low records may vary slightly from our data, if they occured in-between our weather recording intervals... More about our weather records

Advertising

Bucaramanga weather history for previous 24 hours

 ConditionsComfort  
Time TempWeatherWind HumidityBarometerVisibility
3:00 AM
Tue, Jul 7
59 °FMostly cloudy.No wind88%30.25 "Hg2 mi
2:00 AM59 °FPassing clouds.2 mph94%30.27 "Hg4 mi
1:00 AM61 °FPartly cloudy.No wind94%30.30 "Hg4 mi
12:00 AM61 °FPartly cloudy.No wind94%30.33 "Hg5 mi
11:00 PM
Mon, Jul 6
63 °FPartly cloudy.No wind77%30.32 "HgN/A
10:00 PM63 °FPassing clouds.No wind83%30.31 "HgN/A
9:00 PM63 °FPassing clouds.5 mph83%30.31 "HgN/A
8:00 PM63 °FPassing clouds.5 mph77%30.28 "HgN/A
7:00 PM64 °FPartly cloudy.5 mph78%30.26 "HgN/A
6:00 PM68 °FBroken clouds.7 mph69%30.23 "HgN/A
5:00 PM70 °FPartly sunny.12 mph60%30.31 "HgN/A
4:00 PM72 °FPartly sunny.9 mph53%30.20 "HgN/A
3:00 PM73 °FPartly sunny.9 mph47%30.22 "HgN/A
2:00 PM73 °FPartly sunny.10 mph44%30.24 "HgN/A
1:00 PM73 °FPartly sunny.7 mph50%30.27 "HgN/A
12:00 PM72 °FScattered clouds.14 mph57%30.30 "HgN/A
11:00 AM70 °FScattered clouds.12 mph60%30.32 "HgN/A
10:00 AM66 °FBroken clouds.7 mph73%30.32 "HgN/A
9:00 AM63 °FBroken clouds.No wind83%30.34 "HgN/A
8:00 AM59 °FBroken clouds.3 mph94%30.32 "Hg2 mi
7:00 AM57 °FPartly sunny.No wind94%30.29 "Hg2 mi
6:00 AM55 °FFog.5 mph100%30.29 "Hg4 mi
5:00 AM57 °FPassing clouds.No wind94%30.29 "Hg5 mi
4:00 AM59 °FPassing clouds.5 mph94%30.27 "HgN/A
Weather by CustomWeather, © 2015

See weather overviewHow to use our weather pages